Weather in Temora

Australia     34°26′46″S   147°32′05″E
temp.,
°C
wind,
m/s
gust,
m/s
humid.,
%
clouds,
%
prec.,
mm/h
press.,
hPa
HPBL,
m
14 may, fri
fri1401:00+12sw611669 0.0 1013793
04:00+8sw612865 0.0 1014607
07:00+6wsw412860 0.0 1017463
10:00+11wsw610585 0.0 1018956
13:00+12wsw7952100 0.0 10161768
16:00+12wsw4854100 0.0 1015791
19:00+11wsw3859100 0.0 1017446
22:00+10w3958100 0.0 1017409
15 may, sat
sat1501:00+7w41164100 0.0 1017279
04:00+10w7125714 0.0 10161064
07:00+8wsw8147554 0.0 10171123
10:00+9sw1014605 0.1 10191249
13:00+11sw9124356 0.0 10182116
16:00+11sw610455 0.0 10191895
19:00+7wsw512533 0.0 1022438
22:00+5sw412640 0.0 1024313
16 may, sun
sun1601:00+4sw39740 0.0 1024197
04:00+3sw38810 0.0 1024190
07:00+2sw35870 0.0 1025108
10:00+8sw47620 0.0 1025637
13:00+11sw675016 0.0 10231365
16:00+11wsw575224 0.0 10231495
19:00+7w356510 0.0 102478
22:00+7w396648 0.0 1025184
17 may, mon
mon1701:00+5wsw39773 0.0 1025177
04:00+5sw37825 0.0 1025121
07:00+4sw35872 0.0 102790
10:00+11sw57690 0.0 1027518
13:00+14sw57540 0.0 10261238
16:00+14ssw45520 0.0 1026904
19:00+9sw22701 0.0 102814
22:00+7ssw22740 0.0 103014
18 may, tue
tue1801:00+6s22750 0.0 102911
04:00+5se11790 0.0 103010
07:00+4ne11850 0.0 103110
10:00+11n22610 0.0 1031358
13:00+14w23480 0.0 10291119
16:00+14sw23520 0.0 1028437
19:00+9s22650 0.0 102910
22:00+8sse11710 0.0 103010